Location: Newark
(42.9277°N, 71.8621°W)
Time: 18:18:13
(UTC+00:00)

Transit 4A - Pass Details

Date: 20 May 2021
Orbit: 872 x 973 km, 66.8° (Epoch: 15 June)

Event Time Altitude Azimuth Distance (km) Brightness Sun altitude
Rises 05:33:01 0° 332° (NNW) 3,489 11.6 -26.0°
Reaches altitude 10° 05:35:37 10° 338° (NNW) 2,538 10.9 -25.9°
Maximum altitude 05:41:17 48° 53° (NE) 1,124 8.6 -25.7°
Enters shadow 05:45:12 19° 120° (ESE) 1,937 9.4 -25.5°
